Flag for U.S.A. Weather past 2 weeks in Irvine, California, U.S.A.

Now
87 °F

Sunny.


Feels Like: 84 °F
Forecast: 49 / 84 °F
Wind: 15 mph from Northeast

Location: John Wayne Airport-Orange County Airport

Current Time: Mar 6, 2015 at 12:50:18 PM

Latest Report: Mar 6, 2015 at 11:53 AM


Visibility: 10 mi

Pressure: 30.06 "Hg

Humidity: 6%

Dew point: 13 °F

Location of IrvineLocation

Historic Weather in Irvine — Graph

°F

Irvine temperature yesterday

Maximum temperature yesterday: 80 °F (at 12:53 PM)
Minimum temperature yesterday: 49 °F (at 5:53 AM)
Average temperature yesterday: 65 °F

Past Weeks' High & Low Weather Summary

 TemperatureHumidityPressure
High84 °F (Mar 6, 10:53 AM)88% (Feb 26, 6:02 AM)30.26 "Hg (Feb 26, 6:02 AM)
Low49 °F (Mar 5, 5:53 AM)7% (Mar 6, 10:53 AM)29.76 "Hg (Feb 27, 3:53 PM)
Average62 °F57%29.98 "Hg
* Reported Feb 19 10:53 AM — Mar 6 10:53 AM, Irvine, Weather by CustomWeather, © 2015

Note: Actual official high and low records may vary slightly from our data, if they occured in-between our weather recording intervals... More about our weather records

Advertising

Irvine weather history for previous 24 hours

 ConditionsComfort  
Time TempWeatherWind HumidityBarometerVisibility
10:53 AM
Fri, Mar 6
84 °FSunny.13 mph7%30.09 "Hg10 mi
9:53 AM82 °FSunny.7 mph8%30.11 "Hg10 mi
8:53 AM78 °FSunny.6 mph11%30.12 "Hg10 mi
7:53 AM63 °FSunny.No wind34%30.12 "Hg10 mi
6:53 AM54 °FSunny.No wind47%30.12 "Hg10 mi
5:53 AM51 °FClear.No wind52%30.11 "Hg10 mi
4:53 AM51 °FClear.3 mph50%30.11 "Hg10 mi
3:53 AM52 °FClear.No wind50%30.11 "Hg10 mi
2:53 AM52 °FClear.No wind53%30.11 "Hg10 mi
1:53 AM54 °FClear.No wind43%30.12 "Hg10 mi
12:53 AM56 °FClear.No wind39%30.13 "Hg10 mi
11:53 PM
Thu, Mar 5
60 °FClear.No wind28%30.14 "Hg10 mi
10:53 PM62 °FClear.No wind25%30.14 "Hg10 mi
9:53 PM67 °FClear.5 mph15%30.14 "Hg10 mi
8:53 PM68 °FClear.3 mph16%30.15 "Hg10 mi
7:53 PM69 °FClear.3 mph22%30.16 "Hg10 mi
6:53 PM69 °FClear.No wind27%30.16 "Hg10 mi
5:53 PM71 °FClear.3 mph21%30.15 "Hg10 mi
4:53 PM74 °FSunny.5 mph16%30.15 "Hg10 mi
3:53 PM76 °FPassing clouds.9 mph15%30.15 "Hg10 mi
2:53 PM77 °FPassing clouds.10 mph16%30.16 "Hg10 mi
1:53 PM79 °FPassing clouds.8 mph13%30.17 "Hg10 mi
12:53 PM80 °FPassing clouds.7 mph10%30.19 "Hg10 mi
Weather by CustomWeather, © 2015

See weather overviewHow to use our weather pages